[[{"header":{"parameterUnit":"m.s-1","parameterCategory":2,"la1":30.2991,"la2":30.254,"lo1":-89.0895,"lo2":-89.0444,"dy":0.0017,"dx":0.0017,"nx":28,"ny":28,"refTime":"2025-08-05T03:00:00:Z","depth":"0","parameterNumber":2,"parameterNumberName":"U-component_of_CURRENTS"},"data":[0,0,0,0,0,0,0,0,0,0,0,0,0,0,0,0,0,0,0,0,0,0,0,0,0,0,0,0,0,0,0,0,0,0,0,0,0,0,0,0,0,0,0,0,0,0,0,0,0,0,0,0,0,0,0,0,0,0,0.3265,0.3266,0,0.3312,0.3312,0.3313,0.3308,0.3307,0.3307,0.3307,0.3303,0.3303,0.3303,0,0,0,0,0,0,0,0,0,0,0,0,0,0.3154,0.3156,0.3265,0.3266,0.3267,0.3312,0.3312,0.3313,0.3308,0.3307,0.3307,0.3306,0.3303,0.3303,0.3303,0,0,0,0,0,0,0,0,0,0,0,0,0,0.3198,0.3156,0.3265,0.3273,0.3274,0.3312,0.3312,0.3313,0.3308,0.3307,0.3307,0.3306,0.3303,0.3303,0.3303,0.3317,0,0,0.3304,0.3305,0,0,0,0,0,0,0,0,0.3195,0.3202,0.3271,0.3273,0.3274,0.3307,0.3272,0.3313,0.3308,0.3291,0.3307,0.3306,0.3302,0.3303,0.3308,0.3317,0.3316,0.3304,0.3305,0.3305,0.3305,0,0,0,0,0,0,0,0.3192,0.3199,0.328,0.3272,0.3274,0.3269,0.3274,0.328,0.3295,0.3292,0.3293,0.3305,0.3302,0.3308,0.3308,0.3316,0.3304,0.3305,0.3305,0.3305,0.338,0.3382,0,0,0,0,0,0,0.3197,0.3197,0.3278,0.3282,0.3237,0.3271,0.3277,0.3294,0.3296,0.3298,0.3305,0.3305,0.3307,0.3307,0.3308,0.3347,0.3305,0.3305,0.3305,0.3379,0.3381,0.3383,0,0,0,0,0,0,0.3194,0.3204,0.3277,0.3243,0.3252,0.3274,0.3293,0.3295,0.3305,0.3308,0.3307,0.3313,0.3307,0.3307,0.3325,0.3346,0.3305,0.3306,0.3376,0.3379,0.3382,0.3411,0,0,0,0,0,0,0.3191,0.3202,0.3215,0.3244,0.3255,0.3305,0.3294,0.3297,0.3315,0.3314,0.3314,0.3313,0.3306,0.3325,0.3326,0.3346,0.3306,0.3374,0.3378,0.3381,0.3408,0.3415,0.342,0,0,0,0,0,0.3187,0.3206,0.3215,0.3225,0.3271,0.3306,0.3311,0.3321,0.3316,0.3325,0.333,0.3313,0.3347,0.3327,0.3327,0.3348,0.3373,0.3377,0.3381,0.3406,0.3414,0.342,0,0,0,0,0,0,0.3163,0.3209,0.3219,0.3251,0.328,0.3307,0.332,0.3327,0.3338,0.3337,0.333,0.333,0.3359,0.3354,0.3331,0.3383,0.336,0.3364,0.3379,0.3386,0.3392,0.3407,0.3306,0,0,0,0,0,0.3167,0.3192,0.3232,0.3258,0.3275,0.3298,0.3313,0.3324,0.334,0.3345,0.3347,0.3356,0.3377,0.338,0.3396,0.3415,0.3461,0.3433,0.3439,0.3444,0.346,0.3529,0.3542,0.3396,0.3396,0.3396,0,0,0.3164,0.3193,0.3207,0.3254,0.3276,0.3307,0.3304,0.3334,0.3359,0.3343,0.3369,0.3379,0.3391,0.342,0.3431,0.3414,0.3522,0.345,0.3453,0.3466,0.3534,0.3548,0.3561,0.3398,0.3398,0.3398,0,0,0.3171,0.32,0.3223,0.3252,0.3295,0.3315,0.3326,0.3359,0.3373,0.3401,0.3406,0.3432,0.3445,0.3467,0.3478,0.3529,0.3556,0.3531,0.3564,0.3631,0.3643,0.3655,0.3777,0.3799,0.3527,0.3527,0.3527,0,0.3166,0.3205,0.3234,0.3267,0.3294,0.332,0.3352,0.3376,0.3409,0.343,0.3413,0.3475,0.3473,0.3531,0.3546,0.3542,0.3603,0.3529,0.3638,0.365,0.3661,0.3784,0.3808,0.3529,0.3529,0.3529,0.3529,0,0.3191,0.3226,0.3243,0.3295,0.3327,0.3359,0.3402,0.3429,0.3444,0.3469,0.3526,0.3539,0.3576,0.3581,0.3572,0.3655,0.3685,0.3642,0.3616,0.3678,0.3804,0.3828,0.3532,0.3531,0.3531,0.353,0,0,0.3169,0.3246,0.3251,0.3285,0.3346,0.3377,0.3424,0.3481,0.353,0.355,0.3613,0.364,0.3653,0.3669,0.3675,0.3723,0.3856,0.3713,0.3716,0.3831,0.4059,0.4082,0.4112,0.3826,0.383,0.3832,0.4132,0,0.3179,0.3241,0.3278,0.3337,0.3376,0.3421,0.3472,0.3526,0.3572,0.3639,0.3667,0.3732,0.3687,0.3722,0.3759,0.3841,0.3915,0.3783,0.3986,0.3994,0.4001,0.4137,0.3958,0.4208,0.4156,0.416,0.4163,0,0.3185,0.3233,0.329,0.3378,0.34,0.3437,0.3533,0.3584,0.3679,0.372,0.3779,0.3816,0.3912,0.385,0.4026,0.3946,0.4009,0.4061,0.4072,0.4097,0.4061,0.413,0.4254,0.4124,0.42,0.4197,0.4194,0,0.3155,0.3238,0.3285,0.3313,0.3414,0.3449,0.3503,0.3602,0.3671,0.3789,0.3865,0.3954,0.4046,0.4112,0.422,0.4135,0.4431,0.4322,0.4416,0.4421,0.4312,0.43,0.4323,0.4449,0.4449,0.4448,0.4447,0,0.315,0.3187,0.3275,0.3303,0.3378,0.3446,0.3539,0.3609,0.373,0.383,0.3908,0.4031,0.4113,0.4275,0.4312,0.4489,0.4516,0.448,0.4506,0.4323,0.431,0.4223,0.4163,0.4459,0.4457,0.4454,0.4452,0,0.311,0.3162,0.3227,0.333,0.3365,0.3417,0.3553,0.3618,0.3753,0.3893,0.3945,0.4147,0.437,0.4488,0.4669,0.4652,0.4666,0.4828,0.4648,0.4645,0.4536,0.4486,0.4448,0.4309,0.4969,0.4971,0.4973,0,0.3093,0.3122,0.3234,0.3272,0.3317,0.3408,0.3467,0.3603,0.3678,0.3965,0.4025,0.4317,0.448,0.4811,0.4868,0.5015,0.4811,0.492,0.4691,0.4564,0.4527,0.4318,0.4184,0.4589,0.4588,0.4587,0.4586,0,0.3074,0.3111,0.3172,0.325,0.3308,0.3385,0.3479,0.3539,0.3713,0.3866,0.4099,0.4274,0.4617,0.4712,0.494,0.4975,0.4668,0.4904,0.4791,0.4276,0.4029,0.3894,0.4407,0.4577,0.4578,0.4579,0.4579,0.458,0.3059,0.3096,0.3171,0.3236,0.329,0.3336,0.3368,0.3476,0.3608,0.3798,0.4037,0.4247,0.4488,0.4778,0.4801,0.4725,0.466,0.4545,0.4524,0.4345,0.4096,0.4638,0.4806,0.4808,0.481,0.4812,0.4813,0,0.3056,0.3099,0.3152,0.3216,0.3226,0.3283,0.3354,0.3365,0.3464,0.3682,0.3876,0.4114,0.4268,0.4416,0.4479,0.4336,0.4079,0.4224,0.3836,0.374,0.4255,0.4119,0.4119,0.4119,0.4119,0.4119,0.4119,0.412,0.3063,0.3106,0.313,0.3138,0.316,0.3145,0.3158,0.3192,0.3302,0.3437,0.3556,0.3732,0.4031,0.4247,0.4147,0.4036,0.3673,0.3559,0.3535,0.3854,0.3877,0.3899,0.3753,0.3677,0.3676,0.28,0.2794,0.2789]},{"header":{"parameterUnit":"m.s-1","parameterCategory":2,"la1":30.2991,"la2":30.254,"lo1":-89.0895,"lo2":-89.0444,"dy":0.0017,"dx":0.0017,"nx":28,"ny":28,"refTime":"2025-08-05T03:00:00:Z","depth":"0","parameterNumber":3,"parameterNumberName":"V-component_of_CURRENTS"},"data":[0,0,0,0,0,0,0,0,0,0,0,0,0,0,0,0,0,0,0,0,0,0,0,0,0,0,0,0,0,0,0,0,0,0,0,0,0,0,0,0,0,0,0,0,0,0,0,0,0,0,0,0,0,0,0,0,0,0,-0.0079,-0.008,0,-0.0146,-0.0147,-0.0148,-0.02,-0.0201,-0.0201,-0.0201,-0.0319,-0.0322,-0.0325,0,0,0,0,0,0,0,0,0,0,0,0,0,-0.0056,-0.0056,-0.0079,-0.008,-0.0081,-0.0146,-0.0147,-0.0148,-0.02,-0.0201,-0.0201,-0.0201,-0.0318,-0.0322,-0.0325,0,0,0,0,0,0,0,0,0,0,0,0,0,-0.0091,-0.0056,-0.0079,-0.0113,-0.0116,-0.0146,-0.0147,-0.0149,-0.02,-0.0201,-0.0201,-0.0202,-0.0317,-0.0321,-0.0325,-0.0343,0,0,-0.0339,-0.034,0,0,0,0,0,0,0,0,-0.0089,-0.0092,-0.0107,-0.011,-0.0114,-0.0163,-0.0182,-0.0215,-0.02,-0.0171,-0.0201,-0.0202,-0.027,-0.0278,-0.0292,-0.0348,-0.0353,-0.0339,-0.0342,-0.0343,-0.0345,0,0,0,0,0,0,0,-0.0086,-0.0089,-0.0108,-0.0108,-0.0112,-0.0145,-0.015,-0.0189,-0.022,-0.0173,-0.0177,-0.018,-0.0273,-0.0288,-0.0295,-0.0355,-0.0339,-0.0343,-0.0345,-0.0347,-0.0426,-0.0425,0,0,0,0,0,0,-0.007,-0.0087,-0.0106,-0.011,-0.01,-0.0144,-0.015,-0.0149,-0.0218,-0.0228,-0.018,-0.0183,-0.028,-0.029,-0.03,-0.0307,-0.0343,-0.0347,-0.035,-0.0426,-0.0426,-0.0425,0,0,0,0,0,0,-0.0069,-0.007,-0.0103,-0.0099,-0.0105,-0.0144,-0.0142,-0.015,-0.0162,-0.0222,-0.0234,-0.0183,-0.0281,-0.0294,-0.0325,-0.0313,-0.0349,-0.0353,-0.0427,-0.0426,-0.0425,-0.0333,0,0,0,0,0,0,-0.0068,-0.007,-0.0065,-0.0097,-0.0104,-0.0109,-0.0142,-0.0151,-0.0163,-0.0167,-0.0229,-0.0241,-0.0282,-0.0319,-0.033,-0.0319,-0.0357,-0.0427,-0.0426,-0.0426,-0.0337,-0.0329,-0.0323,0,0,0,0,0,-0.0067,-0.0051,-0.0064,-0.0067,-0.0096,-0.0108,-0.0115,-0.0147,-0.0162,-0.0161,-0.0202,-0.0239,-0.0321,-0.0322,-0.0335,-0.0325,-0.0428,-0.0427,-0.0426,-0.034,-0.0331,-0.0323,0,0,0,0,0,0,-0.0038,-0.0056,-0.0071,-0.0062,-0.008,-0.0116,-0.0117,-0.0139,-0.017,-0.0175,-0.0234,-0.0248,-0.0271,-0.0311,-0.031,-0.0346,-0.038,-0.0382,-0.031,-0.0302,-0.0296,-0.0271,-0.036,0,0,0,0,0,-0.0029,-0.0023,-0.0047,-0.0041,-0.0046,-0.0081,-0.0091,-0.0109,-0.014,-0.0154,-0.0196,-0.0241,-0.0278,-0.0299,-0.0338,-0.0357,-0.0386,-0.036,-0.0353,-0.0347,-0.0336,-0.0372,-0.0367,-0.0422,-0.0422,-0.0422,0,0,-0.0017,-0.0025,-0.0023,-0.0035,-0.0053,-0.0046,-0.0088,-0.0093,-0.009,-0.0163,-0.0173,-0.0219,-0.0278,-0.0298,-0.0312,-0.0329,-0.0344,-0.0346,-0.034,-0.0332,-0.0371,-0.0365,-0.0361,-0.0421,-0.0421,-0.0421,0,0,0.0017,0.0004,0.0023,0.0015,0.0,-0.0019,-0.0014,-0.0044,-0.006,-0.0077,-0.0126,-0.0159,-0.0217,-0.0251,-0.0278,-0.0257,-0.0306,-0.0273,-0.0219,-0.0254,-0.025,-0.0246,-0.0259,-0.0257,-0.027,-0.0269,-0.0269,0,0.0032,0.0053,0.0026,0.0044,0.0046,0.0002,0.0026,0.0004,-0.0032,-0.0038,-0.0068,-0.0142,-0.0192,-0.0214,-0.0208,-0.024,-0.0262,-0.0244,-0.0243,-0.0241,-0.0239,-0.0253,-0.0253,-0.0265,-0.0265,-0.0266,-0.0266,0,0.0082,0.0097,0.0109,0.0119,0.0117,0.0129,0.0104,0.0096,0.0069,0.0045,0.0017,-0.0053,-0.0093,-0.0119,-0.016,-0.0169,-0.0189,-0.0229,-0.0259,-0.0227,-0.0245,-0.0246,-0.0258,-0.026,-0.0261,-0.0262,0,0,0.0122,0.0142,0.0147,0.0166,0.016,0.0167,0.0175,0.0172,0.0188,0.0131,0.0142,0.0066,0.0027,-0.0005,-0.0064,-0.01,-0.0106,-0.0151,-0.0156,-0.0154,-0.0165,-0.0144,-0.0143,-0.0148,-0.0148,-0.0148,-0.0176,0,0.017,0.0225,0.022,0.0268,0.0295,0.0266,0.0281,0.027,0.025,0.0249,0.0169,0.015,0.0071,0.0054,0.0008,-0.0073,-0.0107,-0.0093,-0.0206,-0.0208,-0.0185,-0.0144,-0.0136,-0.0158,-0.0178,-0.0178,-0.0178,0,0.0224,0.0255,0.0314,0.035,0.0359,0.0377,0.0401,0.0414,0.0395,0.0378,0.0342,0.028,0.0226,0.0147,0.0032,0.0045,-0.0048,-0.0121,-0.0125,-0.0138,-0.0189,-0.0199,-0.016,-0.0392,-0.018,-0.018,-0.018,0,0.027,0.0322,0.0373,0.0385,0.0415,0.0434,0.0451,0.0452,0.0493,0.0466,0.0497,0.0396,0.0376,0.0238,0.0103,0.006,-0.0016,-0.0099,-0.0168,-0.0167,-0.0198,-0.0199,-0.0388,-0.0186,-0.0186,-0.0186,-0.0186,0,0.0326,0.0367,0.0398,0.0425,0.0495,0.0492,0.0569,0.0567,0.0603,0.0694,0.0575,0.0634,0.0397,0.0328,0.0161,0.003,0.0031,-0.0139,-0.0169,-0.0163,-0.0161,-0.0396,-0.053,-0.0187,-0.0186,-0.0186,-0.0186,0,0.0371,0.0388,0.0452,0.0496,0.0519,0.057,0.0665,0.0733,0.0747,0.0866,0.0868,0.0816,0.074,0.0524,0.0321,0.014,-0.0142,-0.0072,-0.0032,-0.0057,-0.0366,-0.0494,-0.0702,-0.08,-0.0174,-0.0173,-0.0173,0,0.0399,0.0436,0.051,0.0568,0.0592,0.0676,0.0753,0.0795,0.0897,0.1019,0.1099,0.1049,0.1092,0.0807,0.0453,0.0166,-0.0078,-0.0051,-0.0148,-0.0362,-0.0529,-0.0636,-0.0712,-0.0154,-0.0153,-0.0153,-0.0153,0,0.0459,0.0479,0.0539,0.0661,0.0747,0.0863,0.0982,0.1088,0.119,0.1323,0.151,0.1556,0.1289,0.1017,0.058,0.0345,-0.0223,-0.0052,-0.0301,-0.0539,-0.0643,-0.0756,-0.0148,-0.0149,-0.0149,-0.015,-0.015,-0.015,0.0509,0.0569,0.0659,0.0778,0.0889,0.1059,0.1191,0.1363,0.158,0.1836,0.1846,0.2,0.1509,0.0932,0.0561,-0.0161,-0.0181,-0.0399,-0.0536,-0.0623,-0.0727,-0.0085,-0.0105,-0.0105,-0.0105,-0.0105,-0.0106,0,0.0593,0.0672,0.0783,0.0942,0.109,0.1128,0.1362,0.1534,0.1843,0.2097,0.2297,0.2175,0.158,0.0913,-0.0055,-0.0559,-0.0781,-0.0848,-0.1039,-0.1094,-0.0547,-0.0556,-0.064,-0.064,-0.064,-0.064,-0.0639,-0.0639,0.0648,0.0775,0.0838,0.1095,0.1215,0.1442,0.1592,0.1862,0.2092,0.2451,0.2587,0.2641,0.2108,0.0372,-0.0792,-0.106,-0.1452,-0.1525,-0.1701,-0.138,-0.135,-0.1322,-0.1364,-0.1616,-0.1618,-0.2196,-0.2202,-0.2207]}],[{"header":{"parameterUnit":"m.s-1","parameterCategory":2,"la1":30.2991,"la2":30.254,"lo1":-89.0895,"lo2":-89.0444,"dy":0.0017,"dx":0.0017,"nx":28,"ny":28,"refTime":"2025-08-05T03:00:00:Z","depth":"2","parameterNumber":2,"parameterNumberName":"U-component_of_CURRENTS"},"data":[0,0,0,0,0,0,0,0,0,0,0,0,0,0,0,0,0,0,0,0,0,0,0,0,0,0,0,0,0,0,0,0,0,0,0,0,0,0,0,0,0,0,0,0,0,0,0,0,0,0,0,0,0,0,0,0,0,0,0.2814,0.2815,0,0.2857,0.2857,0.2857,0.2863,0.2863,0.2863,0.2863,0.2879,0.2879,0.288,0,0,0,0,0,0,0,0,0,0,0,0,0,0.2734,0.2735,0.2814,0.2815,0.2816,0.2857,0.2857,0.2857,0.2863,0.2863,0.2863,0.2863,0.2879,0.2879,0.288,0,0,0,0,0,0,0,0,0,0,0,0,0,0.2769,0.2735,0.2814,0.2826,0.2828,0.2857,0.2857,0.2858,0.2863,0.2863,0.2863,0.2862,0.2878,0.2879,0.288,0.2889,0,0,0.2883,0.2883,0,0,0,0,0,0,0,0,0.2767,0.2771,0.2823,0.2825,0.2827,0.2857,0.2835,0.2868,0.2863,0.2846,0.2863,0.2862,0.2871,0.2873,0.2877,0.289,0.289,0.2883,0.2883,0.2884,0.2884,0,0,0,0,0,0,0,0.2764,0.2769,0.2828,0.2824,0.2827,0.2828,0.2832,0.2841,0.2856,0.2848,0.2849,0.2859,0.2872,0.2876,0.2878,0.2891,0.2883,0.2883,0.2884,0.2884,0.297,0.2972,0,0,0,0,0,0,0.2766,0.2767,0.2827,0.283,0.2799,0.283,0.2835,0.2845,0.2857,0.286,0.2859,0.2859,0.2875,0.2877,0.2878,0.2932,0.2884,0.2884,0.2885,0.2968,0.2971,0.2973,0,0,0,0,0,0,0.2764,0.2771,0.2825,0.2802,0.2809,0.2832,0.2843,0.2846,0.2863,0.2866,0.2868,0.2874,0.2875,0.2877,0.2905,0.2931,0.2885,0.2885,0.2966,0.2969,0.2972,0.3013,0,0,0,0,0,0,0.2761,0.277,0.2781,0.2802,0.2811,0.2852,0.2844,0.2847,0.287,0.287,0.288,0.288,0.2875,0.2904,0.2906,0.2932,0.2886,0.2964,0.2968,0.2971,0.3009,0.3017,0.3023,0,0,0,0,0,0.2758,0.2773,0.2781,0.2789,0.2824,0.2854,0.2858,0.2871,0.2871,0.2883,0.2895,0.2881,0.2927,0.2906,0.2908,0.2934,0.2962,0.2967,0.2971,0.3006,0.3015,0.3023,0,0,0,0,0,0,0.2742,0.2776,0.2785,0.2809,0.2835,0.2856,0.2872,0.288,0.2899,0.2903,0.2899,0.2901,0.2939,0.2934,0.2911,0.2972,0.2944,0.2949,0.2971,0.2979,0.2986,0.2997,0.2887,0,0,0,0,0,0.2746,0.2766,0.2797,0.2818,0.2833,0.2855,0.287,0.2882,0.2902,0.291,0.2918,0.2933,0.2956,0.2965,0.2982,0.3009,0.303,0.3031,0.3038,0.3043,0.3056,0.3108,0.312,0.2986,0.2986,0.2986,0,0,0.2744,0.2767,0.2778,0.2816,0.2837,0.2865,0.2863,0.2894,0.292,0.2909,0.2945,0.2958,0.2971,0.3007,0.3023,0.3005,0.3097,0.3048,0.3053,0.3062,0.3113,0.3126,0.3138,0.2989,0.2988,0.2988,0,0,0.2751,0.2775,0.2794,0.2821,0.2862,0.288,0.2893,0.2925,0.2943,0.2979,0.2985,0.3018,0.304,0.3062,0.3073,0.313,0.3134,0.3135,0.3173,0.3224,0.3235,0.3245,0.3302,0.3317,0.3134,0.3134,0.3134,0,0.2748,0.2777,0.2804,0.2834,0.2859,0.2888,0.2917,0.2944,0.2981,0.3005,0.2996,0.3065,0.3069,0.3128,0.3147,0.3146,0.3177,0.3135,0.3232,0.3242,0.3252,0.3308,0.3324,0.3137,0.3136,0.3136,0.3136,0,0.2769,0.2798,0.2814,0.2861,0.2892,0.2923,0.2967,0.3001,0.3024,0.305,0.3115,0.3134,0.3175,0.3185,0.318,0.3257,0.326,0.3236,0.3207,0.3268,0.3323,0.3339,0.314,0.3139,0.3139,0.3138,0,0,0.2744,0.2814,0.2818,0.2845,0.291,0.2934,0.2992,0.3049,0.3099,0.3132,0.3195,0.3236,0.3254,0.327,0.328,0.3322,0.3415,0.331,0.3311,0.3361,0.3543,0.35,0.3513,0.3407,0.341,0.3412,0.3558,0,0.275,0.2798,0.2838,0.2888,0.2917,0.2973,0.3026,0.3085,0.3141,0.321,0.3248,0.3313,0.3285,0.3322,0.3357,0.341,0.3457,0.3379,0.3482,0.3486,0.3435,0.353,0.3255,0.3358,0.3574,0.3576,0.3578,0,0.275,0.2785,0.283,0.2907,0.2927,0.2965,0.3063,0.3119,0.3225,0.3277,0.3347,0.3385,0.3469,0.343,0.3545,0.3498,0.3528,0.3556,0.3561,0.3517,0.3472,0.3331,0.3378,0.3604,0.3602,0.36,0.3599,0,0.2704,0.2776,0.281,0.2835,0.2929,0.2967,0.3023,0.3132,0.3201,0.3334,0.3402,0.3491,0.356,0.3607,0.3661,0.3617,0.3786,0.3727,0.3719,0.3717,0.3501,0.3475,0.381,0.381,0.3809,0.3809,0.3808,0,0.2686,0.2712,0.2791,0.2809,0.2865,0.2944,0.3028,0.3112,0.3243,0.3332,0.3431,0.3524,0.3609,0.3703,0.3719,0.3786,0.3836,0.3758,0.3761,0.351,0.3484,0.37,0.3686,0.3814,0.3813,0.3812,0.3811,0,0.2628,0.2679,0.272,0.2811,0.2843,0.2883,0.3017,0.3082,0.3227,0.3353,0.3403,0.3582,0.3716,0.3794,0.3908,0.3873,0.3932,0.3936,0.3647,0.3612,0.3812,0.3798,0.3946,0.3946,0.3946,0.3946,0.3946,0,0.2601,0.2615,0.27,0.2726,0.2766,0.2843,0.2899,0.3052,0.3131,0.3375,0.3425,0.3625,0.3726,0.39,0.3907,0.3963,0.3987,0.3718,0.3572,0.3844,0.3832,0.3817,0.3804,0.3311,0.3306,0.3301,0.3298,0,0.2549,0.2578,0.2612,0.2667,0.2717,0.2772,0.2866,0.2924,0.3111,0.3227,0.3395,0.3508,0.371,0.3663,0.3762,0.374,0.3684,0.3633,0.401,0.3318,0.3256,0.324,0.3246,0.326,0.3263,0.3266,0.3268,0.327,0.2503,0.2511,0.2559,0.26,0.2649,0.268,0.2687,0.2798,0.2897,0.3036,0.3238,0.3319,0.3426,0.3443,0.3373,0.3324,0.3558,0.338,0.3388,0.3402,0.3302,0.3243,0.3227,0.323,0.3233,0.3236,0.3238,0,0.2447,0.2464,0.2493,0.2521,0.2516,0.259,0.2644,0.2617,0.2663,0.2844,0.2961,0.2823,0.2858,0.2947,0.2829,0.2857,0.2773,0.2729,0.2581,0.2625,0.2663,0.2517,0.2238,0.2234,0.223,0.2226,0,0,0.2417,0.2415,0.2424,0.2381,0.2397,0.2353,0.2351,0.2329,0.2398,0.2409,0.2455,0.2737,0.2884,0.2514,0.2498,0.2337,0.2443,0.2252,0.3071,0.2942,0.2974,0.308,0.2913,0,0,0,0,0]},{"header":{"parameterUnit":"m.s-1","parameterCategory":2,"la1":30.2991,"la2":30.254,"lo1":-89.0895,"lo2":-89.0444,"dy":0.0017,"dx":0.0017,"nx":28,"ny":28,"refTime":"2025-08-05T03:00:00:Z","depth":"2","parameterNumber":3,"parameterNumberName":"V-component_of_CURRENTS"},"data":[0,0,0,0,0,0,0,0,0,0,0,0,0,0,0,0,0,0,0,0,0,0,0,0,0,0,0,0,0,0,0,0,0,0,0,0,0,0,0,0,0,0,0,0,0,0,0,0,0,0,0,0,0,0,0,0,0,0,0.0075,0.0075,0,0.0013,0.0012,0.0011,-0.0039,-0.0039,-0.004,-0.004,-0.0145,-0.0148,-0.015,0,0,0,0,0,0,0,0,0,0,0,0,0,0.0083,0.0083,0.0075,0.0074,0.0074,0.0013,0.0012,0.0011,-0.0039,-0.0039,-0.004,-0.004,-0.0145,-0.0148,-0.0151,0,0,0,0,0,0,0,0,0,0,0,0,0,0.0054,0.0084,0.0075,0.0043,0.004,0.0013,0.0012,0.0011,-0.0039,-0.0039,-0.004,-0.004,-0.0144,-0.0147,-0.0151,-0.0164,0,0,-0.0163,-0.0164,0,0,0,0,0,0,0,0,0.0056,0.0054,0.0048,0.0045,0.0042,-0.0004,-0.0024,-0.0049,-0.0039,-0.0011,-0.004,-0.0041,-0.0101,-0.0108,-0.0121,-0.0169,-0.0174,-0.0163,-0.0165,-0.0167,-0.0168,0,0,0,0,0,0,0,0.0058,0.0056,0.0048,0.0048,0.0044,0.0009,0.0005,-0.0029,-0.0055,-0.0014,-0.0017,-0.002,-0.0103,-0.0117,-0.0124,-0.0175,-0.0163,-0.0166,-0.0168,-0.017,-0.024,-0.024,0,0,0,0,0,0,0.0074,0.0058,0.005,0.0047,0.005,0.0009,0.0005,0.0009,-0.0054,-0.0063,-0.002,-0.0022,-0.011,-0.0119,-0.0128,-0.0135,-0.0167,-0.017,-0.0172,-0.0241,-0.024,-0.024,0,0,0,0,0,0,0.0075,0.0075,0.0053,0.0052,0.0047,0.0011,0.0016,0.0009,-0.0004,-0.0057,-0.0068,-0.0024,-0.0111,-0.0122,-0.0151,-0.014,-0.0172,-0.0175,-0.0241,-0.0241,-0.024,-0.0158,0,0,0,0,0,0,0.0075,0.0075,0.0082,0.0054,0.0048,0.0046,0.0016,0.0008,-0.0004,-0.0008,-0.0065,-0.0075,-0.0112,-0.0145,-0.0155,-0.0146,-0.0178,-0.0242,-0.0241,-0.024,-0.0161,-0.0155,-0.0149,0,0,0,0,0,0.0076,0.0095,0.0083,0.0081,0.0059,0.0047,0.0041,0.0011,-0.0004,-0.0003,-0.0041,-0.0073,-0.0148,-0.0148,-0.0159,-0.0151,-0.0242,-0.0241,-0.024,-0.0164,-0.0156,-0.015,0,0,0,0,0,0,0.0103,0.0091,0.0077,0.0091,0.0073,0.004,0.0039,0.0018,-0.0011,-0.0016,-0.0069,-0.0082,-0.0104,-0.0139,-0.0137,-0.017,-0.02,-0.0201,-0.0138,-0.0131,-0.0125,-0.0104,-0.0181,0,0,0,0,0,0.0113,0.0122,0.01,0.011,0.0105,0.0072,0.0062,0.0045,0.0016,0.0003,-0.0035,-0.0076,-0.0109,-0.0128,-0.0163,-0.018,-0.0214,-0.0183,-0.0177,-0.0172,-0.0162,-0.0203,-0.0199,-0.0237,-0.0237,-0.0237,0,0,0.0125,0.0119,0.0123,0.0115,0.0098,0.0105,0.0065,0.006,0.0063,-0.0004,-0.0014,-0.0057,-0.0109,-0.0128,-0.0141,-0.0155,-0.0178,-0.0171,-0.0165,-0.0159,-0.0201,-0.0198,-0.0194,-0.0237,-0.0237,-0.0237,0,0,0.0159,0.015,0.017,0.0163,0.0148,0.013,0.0134,0.0106,0.009,0.0073,0.0028,-0.0004,-0.0056,-0.0087,-0.0111,-0.0093,-0.0145,-0.0108,-0.006,-0.0099,-0.0096,-0.0094,-0.0127,-0.0128,-0.0104,-0.0104,-0.0104,0,0.0173,0.0198,0.0172,0.019,0.0194,0.0149,0.0173,0.0151,0.0117,0.011,0.0082,0.0011,-0.0035,-0.0055,-0.0051,-0.0078,-0.0109,-0.0081,-0.009,-0.0089,-0.0088,-0.0123,-0.0125,-0.01,-0.0101,-0.0101,-0.0101,0,0.0222,0.024,0.0253,0.0262,0.0261,0.0274,0.0248,0.0239,0.0212,0.0187,0.0158,0.0091,0.0053,0.0029,-0.0008,-0.0021,-0.0047,-0.0077,-0.0104,-0.0079,-0.0117,-0.0121,-0.0094,-0.0096,-0.0097,-0.0098,0,0,0.0261,0.0285,0.0289,0.0313,0.0305,0.0315,0.0318,0.0313,0.0325,0.0268,0.0273,0.0202,0.0162,0.0133,0.0078,0.0038,0.0015,-0.001,-0.0014,-0.0035,-0.0068,-0.0098,-0.0106,-0.0019,-0.0019,-0.0019,-0.0096,0,0.0307,0.0367,0.036,0.0413,0.0444,0.0413,0.0423,0.0409,0.0385,0.0376,0.0297,0.0277,0.0202,0.0186,0.0136,0.0048,0.0007,0.0039,-0.0097,-0.0101,-0.0124,-0.0111,-0.0078,-0.0145,-0.01,-0.0101,-0.0102,0,0.0358,0.0396,0.046,0.0503,0.0512,0.0529,0.0549,0.0556,0.0523,0.0503,0.046,0.0396,0.0333,0.0264,0.0127,0.015,0.0053,-0.0025,-0.003,-0.0088,-0.0138,-0.0166,-0.0155,-0.0109,-0.0109,-0.0108,-0.0108,0,0.0408,0.0466,0.0525,0.0539,0.0573,0.0591,0.0604,0.0593,0.0623,0.0587,0.0598,0.0498,0.0465,0.0324,0.0159,0.0144,0.0005,-0.0038,-0.0159,-0.0162,-0.0176,-0.018,-0.0135,-0.0135,-0.0135,-0.0135,-0.0134,0,0.0466,0.0513,0.0554,0.0587,0.0663,0.0656,0.0724,0.0718,0.0731,0.0789,0.0672,0.0685,0.0478,0.037,0.02,0.0015,0.0034,-0.0145,-0.0183,-0.0147,-0.0147,-0.0152,-0.0153,-0.0138,-0.0137,-0.0136,-0.0136,0,0.0513,0.0535,0.0612,0.0665,0.069,0.0744,0.0821,0.0872,0.0863,0.0934,0.093,0.0835,0.0692,0.0472,0.0253,0.0087,-0.0101,-0.0174,-0.0115,-0.0145,-0.0254,-0.025,-0.0316,-0.0318,-0.0319,-0.032,-0.0321,0,0.0544,0.0587,0.0679,0.0737,0.0765,0.0848,0.0909,0.0938,0.1009,0.1037,0.1083,0.0963,0.0904,0.0555,0.0238,-0.0067,-0.0104,-0.0239,-0.0271,-0.0242,-0.0272,-0.0266,-0.026,-0.0257,-0.0257,-0.0257,-0.0257,0,0.0607,0.0633,0.0702,0.0823,0.0903,0.1011,0.1104,0.1182,0.1232,0.128,0.1328,0.1278,0.0952,0.0644,0.0214,0.0009,-0.0193,-0.0256,-0.0236,-0.0215,-0.0192,-0.022,-0.0215,-0.026,-0.026,-0.026,-0.026,-0.026,0.0652,0.0715,0.0803,0.0919,0.1022,0.1156,0.1257,0.1362,0.1481,0.1572,0.1519,0.1455,0.1095,0.0548,0.0172,-0.022,-0.0208,-0.034,-0.0337,-0.0333,-0.0312,-0.0293,-0.0375,-0.0376,-0.0376,-0.0376,-0.0377,0,0.0714,0.0786,0.0896,0.1035,0.1156,0.1205,0.1378,0.1475,0.1624,0.1703,0.1733,0.1397,0.1036,0.0623,0.0037,-0.0318,-0.0336,-0.0419,-0.0364,-0.0359,-0.0354,-0.0333,-0.0403,-0.0404,-0.0405,-0.0406,0,0,0.0749,0.0859,0.0916,0.1119,0.1226,0.1404,0.1512,0.1646,0.1737,0.1802,0.1778,0.1695,0.1177,0.0753,0.0266,-0.0068,-0.0126,-0.0129,-0.007,0.0058,0.0067,-0.0273,-0.023,0,0,0,0,0]}],[{"header":{"parameterUnit":"m.s-1","parameterCategory":2,"la1":30.2991,"la2":30.254,"lo1":-89.0895,"lo2":-89.0444,"dy":0.0017,"dx":0.0017,"nx":28,"ny":28,"refTime":"2025-08-05T03:00:00:Z","depth":"4","parameterNumber":2,"parameterNumberName":"U-component_of_CURRENTS"},"data":[0,0,0,0,0,0,0,0,0,0,0,0,0,0,0,0,0,0,0,0,0,0,0,0,0,0,0,0,0,0,0,0,0,0,0,0,0,0,0,0,0,0,0,0,0,0,0,0,0,0,0,0,0,0,0,0,0,0,0.1841,0.1842,0,0.1913,0.1914,0.1915,0.1974,0.1975,0.1975,0.1976,0.206,0.2062,0.2063,0,0,0,0,0,0,0,0,0,0,0,0,0,0.1749,0.175,0.1841,0.1842,0.1843,0.1913,0.1914,0.1915,0.1974,0.1975,0.1976,0.1977,0.206,0.2062,0.2063,0,0,0,0,0,0,0,0,0,0,0,0,0,0.1799,0.175,0.184,0.1883,0.1887,0.1913,0.1914,0.1915,0.1973,0.1975,0.1976,0.1977,0.2059,0.2061,0.2064,0.2052,0,0,0.207,0.2071,0,0,0,0,0,0,0,0,0.1797,0.1802,0.1875,0.188,0.1885,0.1938,0.1913,0.1962,0.1973,0.1938,0.1976,0.1978,0.2021,0.2026,0.2034,0.2056,0.206,0.207,0.2072,0.2073,0.2073,0,0,0,0,0,0,0,0.1793,0.18,0.1867,0.1876,0.1882,0.1897,0.1905,0.1922,0.197,0.1941,0.1946,0.1958,0.2024,0.2031,0.2036,0.2061,0.207,0.2072,0.2074,0.2075,0.2203,0.2205,0,0,0,0,0,0,0.1788,0.1796,0.1865,0.1869,0.1846,0.1897,0.1907,0.1918,0.197,0.198,0.1957,0.196,0.2027,0.2034,0.2039,0.214,0.2073,0.2075,0.2076,0.2201,0.2204,0.2206,0,0,0,0,0,0,0.1785,0.1793,0.1862,0.1836,0.1847,0.1898,0.191,0.1918,0.1968,0.1982,0.1992,0.2002,0.2028,0.2036,0.2097,0.214,0.2076,0.2078,0.2199,0.2202,0.2205,0.227,0,0,0,0,0,0,0.1782,0.1792,0.1817,0.1836,0.1848,0.1903,0.1909,0.1919,0.1971,0.1978,0.2023,0.203,0.203,0.2094,0.2099,0.2142,0.2079,0.2196,0.22,0.2204,0.2265,0.2275,0.2284,0,0,0,0,0,0.1779,0.18,0.1817,0.1827,0.1874,0.1905,0.1913,0.1951,0.1973,0.1999,0.2037,0.203,0.2122,0.2097,0.2103,0.2147,0.2194,0.2199,0.2204,0.2261,0.2273,0.2283,0,0,0,0,0,0,0.1774,0.1809,0.1828,0.186,0.1895,0.1916,0.1951,0.1973,0.2022,0.2044,0.2054,0.2064,0.2133,0.2132,0.2104,0.2197,0.2158,0.2165,0.22,0.2212,0.2221,0.2225,0.2081,0,0,0,0,0,0.1783,0.1813,0.1843,0.1875,0.1896,0.1931,0.1957,0.1984,0.202,0.2045,0.2077,0.2115,0.2149,0.2176,0.2202,0.225,0.2255,0.2284,0.2294,0.2301,0.231,0.2355,0.2369,0.2222,0.2222,0.2222,0,0,0.1791,0.1816,0.1834,0.1878,0.191,0.1943,0.1951,0.2003,0.2042,0.2045,0.2123,0.215,0.217,0.2228,0.2259,0.2239,0.2348,0.2307,0.2313,0.2318,0.2361,0.2375,0.2388,0.2225,0.2224,0.2224,0,0,0.1807,0.1846,0.1873,0.1905,0.1961,0.1981,0.2005,0.2053,0.2093,0.2156,0.2175,0.2232,0.2282,0.2307,0.2323,0.2398,0.2394,0.2414,0.2465,0.2509,0.2521,0.2532,0.2561,0.2574,0.2419,0.2419,0.2419,0,0.182,0.1852,0.1887,0.1921,0.1955,0.2002,0.2038,0.208,0.2146,0.2184,0.2195,0.2298,0.2316,0.2386,0.2417,0.2419,0.2441,0.2419,0.252,0.2531,0.2541,0.2568,0.2581,0.2423,0.2422,0.2422,0.2421,0,0.1842,0.1886,0.1908,0.1965,0.2006,0.2049,0.2104,0.2164,0.2217,0.2254,0.2351,0.2387,0.2446,0.2465,0.2466,0.2553,0.2545,0.2525,0.2488,0.2559,0.2584,0.2596,0.2428,0.2427,0.2425,0.2424,0,0,0.1819,0.1906,0.1918,0.1954,0.2036,0.2065,0.2147,0.222,0.2285,0.2357,0.2438,0.2506,0.254,0.2561,0.2581,0.2623,0.2711,0.2614,0.2615,0.2637,0.2812,0.2643,0.2641,0.2715,0.2718,0.272,0.2802,0,0.1829,0.1888,0.1937,0.2007,0.2041,0.2118,0.2187,0.2267,0.2344,0.2435,0.2496,0.2582,0.2572,0.2625,0.2665,0.2706,0.2748,0.2691,0.2746,0.2748,0.2583,0.265,0.2728,0.2811,0.2814,0.2816,0.2818,0,0.1825,0.1868,0.1932,0.2029,0.2055,0.2111,0.2234,0.2305,0.2435,0.2506,0.2601,0.2655,0.2751,0.2728,0.2828,0.2798,0.2816,0.2833,0.2836,0.2663,0.2601,0.2726,0.284,0.2839,0.2837,0.2835,0.2834,0,0.1766,0.1862,0.1913,0.1946,0.2062,0.2123,0.2197,0.2329,0.2409,0.2567,0.2644,0.275,0.2828,0.2873,0.2914,0.289,0.3007,0.2968,0.2831,0.2819,0.2917,0.2904,0.3034,0.3034,0.3034,0.3034,0.3033,0,0.1732,0.1778,0.1897,0.1922,0.2002,0.2101,0.2209,0.2308,0.2461,0.2551,0.2681,0.2761,0.2874,0.2946,0.2957,0.2931,0.3042,0.2851,0.2832,0.2943,0.2933,0.2926,0.2912,0.3037,0.3036,0.3035,0.3035,0,0.1652,0.1731,0.1794,0.1925,0.1974,0.2033,0.2205,0.2279,0.2445,0.2571,0.2632,0.2806,0.2895,0.2974,0.3058,0.2971,0.2973,0.2936,0.3065,0.305,0.2746,0.2735,0.2782,0.2777,0.2773,0.2769,0.2766,0,0.1611,0.1636,0.1775,0.1818,0.1884,0.1994,0.207,0.2252,0.2333,0.2566,0.2607,0.2773,0.2859,0.284,0.2936,0.2948,0.2912,0.289,0.2797,0.2745,0.2723,0.2719,0.2714,0.2759,0.2758,0.2756,0.2755,0,0.1526,0.1592,0.1643,0.1734,0.1817,0.1897,0.2022,0.2068,0.2269,0.2441,0.2522,0.2579,0.2676,0.2731,0.2769,0.2768,0.2888,0.2843,0.2851,0.2763,0.2717,0.2698,0.2699,0.274,0.2742,0.2744,0.2744,0,0.1467,0.1482,0.1563,0.1628,0.1724,0.1767,0.1849,0.1942,0.2045,0.2295,0.2315,0.2486,0.2645,0.264,0.2673,0.2665,0.2616,0.2514,0.2538,0.2557,0.2444,0.2349,0.2252,0,0,0,0,0,0.1396,0.1402,0.1452,0.151,0.1597,0.1654,0.1802,0.1891,0.2082,0.2079,0.2193,0.227,0.2334,0.243,0.2375,0.2576,0.2626,0.2501,0.252,0.2655,0.2673,0.256,0,0,0,0,0,0,0.1349,0.139,0.1406,0.1397,0.1414,0.1496,0.1579,0.1709,0.1722,0.1923,0.1972,0.2124,0.2223,0.2333,0.2326,0.2354,0.2318,0.2614,0.2608,0.2645,0.2661,0.2675,0.2566,0,0,0,0,0]},{"header":{"parameterUnit":"m.s-1","parameterCategory":2,"la1":30.2991,"la2":30.254,"lo1":-89.0895,"lo2":-89.0444,"dy":0.0017,"dx":0.0017,"nx":28,"ny":28,"refTime":"2025-08-05T03:00:00:Z","depth":"4","parameterNumber":3,"parameterNumberName":"V-component_of_CURRENTS"},"data":[0,0,0,0,0,0,0,0,0,0,0,0,0,0,0,0,0,0,0,0,0,0,0,0,0,0,0,0,0,0,0,0,0,0,0,0,0,0,0,0,0,0,0,0,0,0,0,0,0,0,0,0,0,0,0,0,0,0,0.0095,0.0095,0,0.0051,0.005,0.005,0.0014,0.0014,0.0013,0.0013,-0.0066,-0.0068,-0.007,0,0,0,0,0,0,0,0,0,0,0,0,0,0.0096,0.0096,0.0095,0.0095,0.0094,0.0051,0.005,0.005,0.0014,0.0014,0.0013,0.0013,-0.0066,-0.0068,-0.007,0,0,0,0,0,0,0,0,0,0,0,0,0,0.0077,0.0097,0.0095,0.0072,0.007,0.0051,0.005,0.0049,0.0014,0.0014,0.0013,0.0013,-0.0065,-0.0068,-0.007,-0.0081,0,0,-0.0079,-0.008,0,0,0,0,0,0,0,0,0.0078,0.0077,0.0076,0.0074,0.0071,0.0039,0.0021,0.0004,0.0014,0.0034,0.0013,0.0013,-0.0033,-0.0039,-0.0048,-0.0085,-0.0088,-0.0079,-0.0081,-0.0082,-0.0083,0,0,0,0,0,0,0,0.008,0.0078,0.0076,0.0076,0.0073,0.0046,0.0044,0.0018,0.0001,0.0032,0.003,0.0027,-0.0035,-0.0045,-0.005,-0.0089,-0.0079,-0.0082,-0.0084,-0.0085,-0.0141,-0.0141,0,0,0,0,0,0,0.0091,0.008,0.0078,0.0075,0.0076,0.0047,0.0044,0.0048,0.0002,-0.0005,0.0028,0.0026,-0.004,-0.0047,-0.0053,-0.0058,-0.0082,-0.0085,-0.0087,-0.0141,-0.0141,-0.0141,0,0,0,0,0,0,0.0092,0.0092,0.0079,0.0077,0.0074,0.0048,0.0053,0.0048,0.004,-0.0001,-0.0009,0.0025,-0.004,-0.0049,-0.0071,-0.0062,-0.0086,-0.0089,-0.0142,-0.0141,-0.0141,-0.0076,0,0,0,0,0,0,0.0092,0.0092,0.0099,0.0078,0.0074,0.0075,0.0053,0.0047,0.0039,0.0036,-0.0005,-0.0013,-0.0041,-0.0066,-0.0074,-0.0067,-0.0091,-0.0142,-0.0141,-0.0141,-0.0078,-0.0073,-0.0069,0,0,0,0,0,0.0092,0.0108,0.01,0.0099,0.0085,0.0076,0.0071,0.005,0.004,0.0041,0.0012,-0.0012,-0.0069,-0.0068,-0.0077,-0.007,-0.0142,-0.0142,-0.0141,-0.008,-0.0074,-0.0069,0,0,0,0,0,0,0.0112,0.0105,0.0096,0.0108,0.0095,0.007,0.0071,0.0056,0.0034,0.0032,-0.0009,-0.0018,-0.0035,-0.0062,-0.006,-0.0086,-0.011,-0.0111,-0.0061,-0.0055,-0.0051,-0.0033,-0.0094,0,0,0,0,0,0.0121,0.0129,0.0114,0.0123,0.0119,0.0095,0.0089,0.0076,0.0055,0.0045,0.0017,-0.0014,-0.004,-0.0054,-0.0082,-0.0095,-0.0126,-0.0097,-0.0093,-0.0088,-0.008,-0.012,-0.0118,-0.0139,-0.0139,-0.0139,0,0,0.013,0.0128,0.0132,0.0127,0.0115,0.0121,0.0091,0.0088,0.0091,0.004,0.0035,0.0,-0.0041,-0.0055,-0.0065,-0.0076,-0.0099,-0.0088,-0.0084,-0.0078,-0.0119,-0.0117,-0.0115,-0.0139,-0.0139,-0.0139,0,0,0.0157,0.0153,0.0169,0.0164,0.0154,0.0142,0.0145,0.0124,0.0113,0.0102,0.0066,0.0041,0.0001,-0.0024,-0.0043,-0.003,-0.0074,-0.0041,-0.0002,-0.0041,-0.0039,-0.0038,-0.0075,-0.0078,-0.0038,-0.0038,-0.0038,0,0.0168,0.0189,0.0171,0.0185,0.019,0.0157,0.0176,0.016,0.0135,0.0131,0.0109,0.0053,0.0018,0.0,0.0004,-0.0018,-0.0049,-0.0018,-0.0034,-0.0033,-0.0033,-0.0072,-0.0076,-0.0035,-0.0035,-0.0035,-0.0036,0,0.0205,0.0222,0.0232,0.0242,0.0243,0.0254,0.0236,0.023,0.0211,0.0193,0.0169,0.0116,0.0086,0.0066,0.0039,0.0024,-0.0001,-0.0023,-0.0044,-0.0027,-0.0069,-0.0074,-0.003,-0.0031,-0.0032,-0.0033,0,0,0.0231,0.0255,0.0259,0.0281,0.0278,0.0288,0.0292,0.029,0.03,0.0256,0.026,0.0204,0.0173,0.0149,0.0105,0.0069,0.0039,0.0029,0.0025,-0.0001,-0.0046,-0.0067,-0.0075,0.0012,0.0012,0.0012,-0.0076,0,0.0266,0.0314,0.0313,0.036,0.0385,0.0366,0.0377,0.0368,0.0349,0.0342,0.0278,0.0262,0.0205,0.0193,0.0147,0.0067,0.0029,0.0065,-0.0065,-0.0069,-0.0083,-0.008,0.001,-0.008,-0.0081,-0.0082,-0.0083,0,0.0301,0.0334,0.0389,0.0431,0.044,0.046,0.048,0.0487,0.0461,0.0445,0.0409,0.0358,0.0301,0.0249,0.012,0.0145,0.0061,-0.0009,-0.0014,-0.0057,-0.0098,-0.0102,-0.0093,-0.0092,-0.0091,-0.009,-0.009,0,0.0334,0.0387,0.0438,0.0452,0.0488,0.051,0.0526,0.0519,0.0542,0.0514,0.052,0.0434,0.0398,0.0279,0.0131,0.0127,-0.0018,-0.0043,-0.0142,-0.0145,-0.0129,-0.013,-0.013,-0.013,-0.0129,-0.0129,-0.0129,0,0.0372,0.0415,0.0462,0.0491,0.056,0.0562,0.0623,0.062,0.063,0.0662,0.058,0.0571,0.0403,0.0297,0.0157,-0.001,-0.0002,-0.0133,-0.0168,-0.0101,-0.0097,-0.0133,-0.0133,-0.0132,-0.0132,-0.0131,-0.0131,0,0.0398,0.0426,0.0494,0.0551,0.0578,0.0627,0.0701,0.0739,0.0736,0.0773,0.0769,0.0676,0.0529,0.035,0.0151,0.0032,-0.013,-0.0191,-0.0102,-0.0131,-0.0238,-0.0233,-0.0305,-0.0306,-0.0307,-0.0308,-0.0309,0,0.0415,0.0451,0.0544,0.0594,0.0626,0.0703,0.0757,0.0791,0.0834,0.0832,0.0848,0.0729,0.0638,0.0351,0.0149,-0.0122,-0.0164,-0.0245,-0.0246,-0.0229,-0.0255,-0.0248,-0.0242,-0.0311,-0.0311,-0.0312,-0.0312,0,0.0446,0.0478,0.0536,0.0641,0.0715,0.0807,0.0883,0.0925,0.0955,0.096,0.0916,0.0764,0.0594,0.0356,0.0142,-0.0053,-0.0192,-0.0259,-0.0258,-0.0259,-0.0238,-0.0261,-0.0253,-0.0316,-0.0316,-0.0315,-0.0315,0,0.0467,0.0513,0.0587,0.0679,0.0778,0.0868,0.0916,0.0962,0.1004,0.0997,0.0978,0.0793,0.069,0.0391,0.0194,-0.0004,-0.0058,-0.0118,-0.0126,-0.0124,-0.0054,0.0001,-0.003,0,0,0,0,0,0.0481,0.053,0.0618,0.0718,0.0817,0.0879,0.0977,0.1014,0.1047,0.1029,0.1008,0.0849,0.0554,0.0426,0.0226,0.015,-0.0106,-0.0093,-0.0182,-0.0339,-0.0334,-0.0287,0,0,0,0,0,0,0.0489,0.0567,0.0612,0.0729,0.0803,0.0918,0.0985,0.1016,0.1006,0.1007,0.0857,0.0792,0.0504,0.0667,0.0218,0.0158,0.0072,-0.0227,-0.0232,-0.0342,-0.0338,-0.0334,-0.0283,0,0,0,0,0]}]]